Location: Ch�ze
(42.9000°N, 0.0333°W)
Time: 00:16:32
(UTC+00:00)

Cosmos 1680 Rocket - Pass Details

Date: 24 January 2021
Orbit: 760 x 780 km, 74.1° (Epoch: 24 February)

Event Time Altitude Azimuth Distance (km) Brightness Sun altitude
Rises 17:34:11 0° 347° (NNW) 3,246 6.7 -6.1°
Reaches altitude 10° 17:36:50 10° 358° (N) 2,312 5.8 -6.6°
Maximum altitude 17:41:30 32° 61° (ENE) 1,296 4.2 -7.4°
Drops below altitude 10° 17:46:08 10° 124° (SE) 2,291 5.6 -8.2°
Sets 17:48:43 0° 134° (SE) 3,211 6.4 -8.7°
